,,Stat5,,Stat1,,Stat2,,Stat3,,Stat4,,Wind1,,Wind1,
time,status,PA1M_AVG,status,PR1M_SUM,status,RH1M_AVG,status,SR1M_AVG,status,TA1M_AVG,status,W1dAve1m,status,W1sAve1m,
2000-04-03, 00:00:00,VALID,918.43,VALID,0,VALID,99.69,VALID,-0.0339617,VALID,18.4722,VALID,91,VALID,0.938702,
2000-04-03, 00:01:00,VALID,918.426,VALID,0,VALID,99.6849,VALID,-0.0339617,VALID,18.469,VALID,102,VALID,0.792969,
2000-04-03, 00:02:00,VALID,918.416,VALID,0,VALID,99.7154,VALID,0,VALID,18.472,VALID,77,VALID,0.749589,
2000-04-03, 00:03:00,VALID,918.418,VALID,0,VALID,99.7294,VALID,0,VALID,18.4874,VALID,98,VALID,0.517144,
2000-04-03, 00:04:00,VALID,918.415,VALID,0,VALID,99.723,VALID,0,VALID,18.508,VALID,104,VALID,0.60178,
2000-04-03, 00:05:00,VALID,918.419,VALID,0,VALID,99.737,VALID,0,VALID,18.5041,VALID,106,VALID,0.388494,
2000-04-03, 00:06:00,VALID,918.401,VALID,0,VALID,99.7319,VALID,0.0679233,VALID,18.4932,VALID,330,VALID,0.174679,
2000-04-03, 00:07:00,VALID,918.397,VALID,0,VALID,99.7332,VALID,0.101885,VALID,18.4992,VALID,84,VALID,0.793973,
2000-04-03, 00:08:00,VALID,918.376,VALID,0,VALID,99.7408,VALID,0.0849042,VALID,18.4957,VALID,97,VALID,1.51161,
2000-04-03, 00:09:00,VALID,918.369,VALID,0,VALID,99.751,VALID,0.0849042,VALID,18.5057,VALID,89,VALID,0.639223,
2000-04-03, 00:10:00,VALID,918.358,VALID,0,VALID,99.7332,VALID,0.0679233,VALID,18.5024,VALID,78,VALID,0.29338,
2000-04-03, 00:11:00,VALID,918.347,VALID,0,VALID,99.7459,VALID,0.0679233,VALID,18.4992,VALID,153,VALID,0.180921,
2000-04-03, 00:12:00,VALID,918.315,VALID,0,VALID,99.7459,VALID,0.101885,VALID,18.4994,VALID,152,VALID,0.176809,
2000-04-03, 00:13:00,VALID,918.312,VALID,0,VALID,99.7459,VALID,0.101885,VALID,18.4997,VALID,204,VALID,0.00360577,
2000-04-03, 00:14:00,VALID,918.31,VALID,0,VALID,99.7587,VALID,0.0849042,VALID,18.4994,VALID,133,VALID,0.655859,
2000-04-03, 00:15:00,VALID,918.277,VALID,0,VALID,99.7815,VALID,0.0849042,VALID,18.5382,VALID,78,VALID,0.93236,
2000-04-03, 00:16:00,VALID,918.271,VALID,0,VALID,99.7917,VALID,0.118866,VALID,18.5444,VALID,86,VALID,0.157278,
2000-04-03, 00:17:00,VALID,918.255,VALID,0,VALID,99.779,VALID,0.0679233,VALID,18.5449,VALID,245,VALID,0.229235,
2000-04-03, 00:18:00,VALID,918.261,VALID,0,VALID,99.7701,VALID,0.0849042,VALID,18.5384,VALID,200,VALID,0.234786,
2000-04-03, 00:19:00,VALID,918.258,VALID,0,VALID,99.7815,VALID,0.0849042,VALID,18.5384,VALID,117,VALID,0.473684,
2000-04-03, 00:20:00,VALID,918.268,VALID,0,VALID,99.7968,VALID,0.101885,VALID,18.5541,VALID,140,VALID,0.570929,
2000-04-03, 00:21:00,VALID,918.242,VALID,0,VALID,99.7904,VALID,0.0509425,VALID,18.5414,VALID,115,VALID,0.42488,
2000-04-03, 00:22:00,VALID,918.248,VALID,0,VALID,99.7955,VALID,0.101885,VALID,18.5481,VALID,127,VALID,0.206641,
2000-04-03, 00:23:00,VALID,918.23,VALID,0,VALID,99.8044,VALID,0.0849042,VALID,18.5578,VALID,124,VALID,0.577919,
2000-04-03, 00:24:00,VALID,918.2,VALID,0,VALID,99.8146,VALID,0.0849042,VALID,18.5569,VALID,97,VALID,2.33429,
2000-04-03, 00:25:00,VALID,918.189,VALID,0,VALID,99.8032,VALID,0.0849042,VALID,18.5737,VALID,101,VALID,1.14021,
2000-04-03, 00:26:00,VALID,918.201,VALID,0,VALID,99.7968,VALID,0.101885,VALID,18.5511,VALID,92,VALID,1.09539,
2000-04-03, 00:27:00,VALID,918.194,VALID,0,VALID,99.8057,VALID,0.101885,VALID,18.561,VALID,77,VALID,0.458265,
2000-04-03, 00:28:00,VALID,918.183,VALID,0,VALID,99.7993,VALID,0.101885,VALID,18.5379,VALID,100,VALID,1.21443,
2000-04-03, 00:29:00,VALID,918.188,VALID,0,VALID,99.8146,VALID,0.0849042,VALID,18.5379,VALID,357,VALID,0.499399,
2000-04-03, 00:30:00,VALID,918.199,VALID,0,VALID,99.8082,VALID,0.0849042,VALID,18.5278,VALID,90,VALID,0.996289,
2000-04-03, 00:31:00,VALID,918.181,VALID,0,VALID,99.8197,VALID,0.0849042,VALID,18.5615,VALID,89,VALID,1.00185,
2000-04-03, 00:32:00,VALID,918.188,VALID,0,VALID,99.8388,VALID,0.101885,VALID,18.5772,VALID,93,VALID,0.954153,
2000-04-03, 00:33:00,VALID,918.207,VALID,0.2,VALID,99.8413,VALID,0.101885,VALID,18.5832,VALID,131,VALID,0.453947,
2000-04-03, 00:34:00,VALID,918.191,VALID,0,VALID,99.8426,VALID,0.0509425,VALID,18.5871,VALID,68,VALID,1.06106,
2000-04-03, 00:35:00,VALID,918.202,VALID,0,VALID,99.84,VALID,0.0849042,VALID,18.5834,VALID,45,VALID,0.929688,
2000-04-03, 00:36:00,VALID,918.198,VALID,0,VALID,99.8451,VALID,-0.0679233,VALID,18.5716,VALID,110,VALID,0.828536,
2000-04-03, 00:37:00,VALID,918.188,VALID,0,VALID,99.8426,VALID,-0.0339617,VALID,18.5818,VALID,82,VALID,0.714944,
2000-04-03, 00:38:00,VALID,918.192,VALID,0,VALID,99.8578,VALID,-0.0509425,VALID,18.5781,VALID,104,VALID,0.506836,
2000-04-03, 00:39:00,VALID,918.189,VALID,0,VALID,99.8477,VALID,0,VALID,18.5885,VALID,153,VALID,0.056949,
2000-04-03, 00:40:00,VALID,918.156,VALID,0,VALID,99.8311,VALID,0,VALID,18.5719,VALID,270,VALID,0.399054,
2000-04-03, 00:41:00,VALID,918.139,VALID,0,VALID,99.8388,VALID,0,VALID,18.5723,VALID,202,VALID,0.307977,
2000-04-03, 00:42:00,VALID,918.105,VALID,0,VALID,99.8324,VALID,0,VALID,18.5622,VALID,194,VALID,0.422697,
2000-04-03, 00:43:00,VALID,918.08,VALID,0,VALID,99.8337,VALID,0.0339617,VALID,18.5654,VALID,270,VALID,0.606086,
2000-04-03, 00:44:00,VALID,918.069,VALID,0,VALID,99.8515,VALID,-0.0339617,VALID,18.5585,VALID,144,VALID,0.366776,
2000-04-03, 00:45:00,VALID,918.04,VALID,0,VALID,99.8451,VALID,-0.0509425,VALID,18.582,VALID,119,VALID,0.41847,
2000-04-03, 00:46:00,VALID,918.021,VALID,0,VALID,99.8604,VALID,-0.0509425,VALID,18.5883,VALID,114,VALID,0.345898,
2000-04-03, 00:47:00,VALID,918.005,VALID,0,VALID,99.8629,VALID,-0.0679233,VALID,18.5945,VALID,140,VALID,0.0596217,
2000-04-03, 00:48:00,VALID,918.001,VALID,0,VALID,99.8642,VALID,-0.0339617,VALID,18.591,VALID,188,VALID,0.051398,
2000-04-03, 00:49:00,VALID,917.982,VALID,0,VALID,99.8667,VALID,-0.0169808,VALID,18.5945,VALID,149,VALID,0.537829,
2000-04-03, 00:50:00,VALID,917.979,VALID,0,VALID,99.8693,VALID,0,VALID,18.6009,VALID,82,VALID,0.181743,
2000-04-03, 00:51:00,VALID,917.995,VALID,0,VALID,99.854,VALID,-0.0169808,VALID,18.5913,VALID,194,VALID,0.354852,
2000-04-03, 00:52:00,VALID,917.973,VALID,0,VALID,99.8591,VALID,-0.0169808,VALID,18.5848,VALID,139,VALID,0,
2000-04-03, 00:53:00,VALID,917.979,VALID,0,VALID,99.8667,VALID,-0.0339617,VALID,18.5979,VALID,140,VALID,0,
2000-04-03, 00:54:00,VALID,917.987,VALID,0,VALID,99.8731,VALID,0,VALID,18.5876,VALID,169,VALID,0.247461,
2000-04-03, 00:55:00,VALID,917.977,VALID,0,VALID,99.8845,VALID,0,VALID,18.6009,VALID,92,VALID,0.697368,
2000-04-03, 00:56:00,VALID,917.982,VALID,0,VALID,99.8858,VALID,-0.0339617,VALID,18.6171,VALID,87,VALID,1.10917,
2000-04-03, 00:57:00,VALID,917.977,VALID,0,VALID,99.8909,VALID,-0.0169808,VALID,18.6143,VALID,93,VALID,1.26645,
2000-04-03, 00:58:00,VALID,917.967,VALID,0,VALID,99.8896,VALID,-0.0509425,VALID,18.6106,VALID,101,VALID,0.711554,
2000-04-03, 00:59:00,VALID,917.963,VALID,0,VALID,99.8731,VALID,-0.0169808,VALID,18.6076,VALID,97,VALID,0.913651,
2000-04-03, 01:00:00,VALID,917.942,VALID,0,VALID,99.8807,VALID,-0.0169808,VALID,18.5885,VALID,99,VALID,0.945313,
2000-04-03, 01:01:00,VALID,917.929,VALID,0,VALID,99.8858,VALID,-0.0339617,VALID,18.6079,VALID,91,VALID,0.717147,
2000-04-03, 01:02:00,VALID,917.922,VALID,0,VALID,99.8769,VALID,0,VALID,18.5945,VALID,105,VALID,0.955469,
2000-04-03, 01:03:00,VALID,917.906,VALID,0,VALID,99.896,VALID,0,VALID,18.5975,VALID,106,VALID,0.829564,
2000-04-03, 01:04:00,VALID,917.896,VALID,0,VALID,99.8896,VALID,-0.0509425,VALID,18.6245,VALID,163,VALID,0.216488,
2000-04-03, 01:05:00,VALID,917.879,VALID,0,VALID,99.8934,VALID,-0.0509425,VALID,18.6201,VALID,176,VALID,0.604646,
2000-04-03, 01:06:00,VALID,917.847,VALID,0,VALID,99.8934,VALID,-0.0169808,VALID,18.6169,VALID,88,VALID,1.31188,
2000-04-03, 01:07:00,VALID,917.818,VALID,0,VALID,99.8934,VALID,-0.0339617,VALID,18.6102,VALID,33,VALID,0.763363,
2000-04-03, 01:08:00,VALID,917.81,VALID,0,VALID,99.8909,VALID,0,VALID,18.6143,VALID,262,VALID,0.129934,
2000-04-03, 01:09:00,VALID,917.793,VALID,0,VALID,99.8985,VALID,-0.0169808,VALID,18.6173,VALID,194,VALID,0.0633013,
2000-04-03, 01:10:00,VALID,917.757,VALID,0,VALID,99.8947,VALID,0,VALID,18.6139,VALID,280,VALID,0.353711,
2000-04-03, 01:11:00,VALID,917.712,VALID,0,VALID,99.8922,VALID,-0.0509425,VALID,18.5848,VALID,13,VALID,0.862253,
2000-04-03, 01:12:00,VALID,917.699,VALID,0,VALID,99.9125,VALID,-0.0169808,VALID,18.6335,VALID,100,VALID,1.15173,
2000-04-03, 01:13:00,VALID,917.709,VALID,0,VALID,99.9062,VALID,0,VALID,18.6335,VALID,106,VALID,0.953742,
2000-04-03, 01:14:00,VALID,917.695,VALID,0,VALID,99.9227,VALID,-0.0169808,VALID,18.633,VALID,4,VALID,0.500822,
2000-04-03, 01:15:00,VALID,917.7,VALID,0,VALID,99.9163,VALID,0,VALID,18.6466,VALID,98,VALID,0.488692,
2000-04-03, 01:16:00,VALID,917.69,VALID,0,VALID,99.8973,VALID,-0.0339617,VALID,18.6169,VALID,157,VALID,0.133429,
2000-04-03, 01:17:00,VALID,917.69,VALID,0,VALID,99.8884,VALID,-0.0169808,VALID,18.6074,VALID,246,VALID,0.282031,
2000-04-03, 01:18:00,VALID,917.701,VALID,0,VALID,99.8871,VALID,-0.0339617,VALID,18.5947,VALID,1,VALID,0.751172,
2000-04-03, 01:19:00,VALID,917.695,VALID,0,VALID,99.8795,VALID,-0.0509425,VALID,18.5818,VALID,25,VALID,0.779605,
2000-04-03, 01:20:00,VALID,917.701,VALID,0,VALID,99.8934,VALID,-0.0169808,VALID,18.5848,VALID,97,VALID,0.544202,
2000-04-03, 01:21:00,VALID,917.711,VALID,0,VALID,99.91,VALID,-0.0339617,VALID,18.5977,VALID,79,VALID,0.117804,
2000-04-03, 01:22:00,VALID,917.71,VALID,0,VALID,99.9252,VALID,-0.0509425,VALID,18.6268,VALID,95,VALID,0.180304,
2000-04-03, 01:23:00,VALID,917.71,VALID,0,VALID,99.9189,VALID,-0.0339617,VALID,18.633,VALID,95,VALID,0.346217,
2000-04-03, 01:24:00,VALID,917.703,VALID,0,VALID,99.9138,VALID,-0.0509425,VALID,18.6171,VALID,93,VALID,0.758635,
2000-04-03, 01:25:00,VALID,917.715,VALID,0,VALID,99.9227,VALID,-0.0339617,VALID,18.6233,VALID,101,VALID,0.648638,
2000-04-03, 01:26:00,VALID,917.718,VALID,0,VALID,99.9341,VALID,-0.0509425,VALID,18.6395,VALID,97,VALID,0.695508,
2000-04-03, 01:27:00,VALID,917.712,VALID,0,VALID,99.9379,VALID,-0.0509425,VALID,18.6628,VALID,99,VALID,0.632607,
2000-04-03, 01:28:00,VALID,917.694,VALID,0,VALID,99.9265,VALID,-0.0509425,VALID,18.6459,VALID,93,VALID,0.646176,
2000-04-03, 01:29:00,VALID,917.684,VALID,0,VALID,99.9367,VALID,-0.0169808,VALID,18.6658,VALID,97,VALID,0.479852,
2000-04-03, 01:30:00,VALID,917.665,VALID,0,VALID,99.9379,VALID,-0.0169808,VALID,18.6787,VALID,104,VALID,0.582854,
2000-04-03, 01:31:00,VALID,917.659,VALID,0,VALID,99.9443,VALID,-0.0339617,VALID,18.6782,VALID,100,VALID,0.485814,
2000-04-03, 01:32:00,VALID,917.647,VALID,0,VALID,99.9443,VALID,-0.0169808,VALID,18.6814,VALID,95,VALID,0.195518,
2000-04-03, 01:33:00,VALID,917.615,VALID,0,VALID,99.9443,VALID,-0.0339617,VALID,18.6874,VALID,109,VALID,0.355769,
2000-04-03, 01:34:00,VALID,917.598,VALID,0,VALID,99.929,VALID,-0.0339617,VALID,18.6715,VALID,41,VALID,0.210352,
2000-04-03, 01:35:00,VALID,917.594,VALID,0,VALID,99.929,VALID,0,VALID,18.6722,VALID,245,VALID,0.194696,
2000-04-03, 01:36:00,VALID,917.573,VALID,0,VALID,99.9062,VALID,0.0339617,VALID,18.6547,VALID,217,VALID,0,
2000-04-03, 01:37:00,VALID,917.562,VALID,0,VALID,99.9125,VALID,0.0679233,VALID,18.6448,VALID,217,VALID,0,
2000-04-03, 01:38:00,VALID,917.549,VALID,0,VALID,99.9252,VALID,0.0679233,VALID,18.6507,VALID,217,VALID,0,
2000-04-03, 01:39:00,VALID,917.546,VALID,0,VALID,99.9341,VALID,0.0849042,VALID,18.6574,VALID,217,VALID,0,
2000-04-03, 01:40:00,VALID,917.529,VALID,0,VALID,99.9341,VALID,0.0679233,VALID,18.6674,VALID,217,VALID,0,
2000-04-03, 01:41:00,VALID,917.514,VALID,0,VALID,99.9201,VALID,0.101885,VALID,18.6411,VALID,219,VALID,0,
2000-04-03, 01:42:00,VALID,917.511,VALID,0,VALID,99.9163,VALID,0.0849042,VALID,18.612,VALID,295,VALID,0,
2000-04-03, 01:43:00,VALID,917.501,VALID,0,VALID,99.91,VALID,0.0509425,VALID,18.6055,VALID,287,VALID,0,
2000-04-03, 01:44:00,VALID,917.485,VALID,0,VALID,99.9278,VALID,0.101885,VALID,18.612,VALID,77,VALID,0,
2000-04-03, 01:45:00,VALID,917.47,VALID,0,VALID,99.9367,VALID,0.0679233,VALID,18.6251,VALID,131,VALID,0,
2000-04-03, 01:46:00,VALID,917.463,VALID,0,VALID,99.9532,VALID,0.0849042,VALID,18.6344,VALID,114,VALID,0,
2000-04-03, 01:47:00,VALID,917.43,VALID,0,VALID,99.9494,VALID,0.101885,VALID,18.651,VALID,111,VALID,0,
2000-04-03, 01:48:00,VALID,917.405,VALID,0,VALID,99.9443,VALID,0.0849042,VALID,18.654,VALID,111,VALID,0,
2000-04-03, 01:49:00,VALID,917.394,VALID,0,VALID,99.9443,VALID,0.0509425,VALID,18.6279,VALID,111,VALID,0,
2000-04-03, 01:50:00,VALID,917.378,VALID,0,VALID,99.9494,VALID,0.0849042,VALID,18.6507,VALID,112,VALID,0,
2000-04-03, 01:51:00,VALID,917.361,VALID,0,VALID,99.9583,VALID,0,VALID,18.6685,VALID,125,VALID,0,
2000-04-03, 01:52:00,VALID,917.338,VALID,0,VALID,99.9697,VALID,0,VALID,18.672,VALID,101,VALID,0.307566,
2000-04-03, 01:53:00,VALID,917.326,VALID,0,VALID,99.9774,VALID,0,VALID,18.6782,VALID,92,VALID,0.348479,
2000-04-03, 01:54:00,VALID,917.311,VALID,0,VALID,99.9557,VALID,-0.0339617,VALID,18.6616,VALID,76,VALID,0.00616776,
2000-04-03, 01:55:00,VALID,917.301,VALID,0,VALID,99.9532,VALID,-0.0169808,VALID,18.6521,VALID,76,VALID,0,
2000-04-03, 01:56:00,VALID,917.284,VALID,0,VALID,99.9481,VALID,-0.0169808,VALID,18.6621,VALID,99,VALID,0.145765,
2000-04-03, 01:57:00,VALID,917.275,VALID,0,VALID,99.9557,VALID,-0.0339617,VALID,18.6556,VALID,136,VALID,0.17488,
2000-04-03, 01:58:00,VALID,917.259,VALID,0,VALID,99.9418,VALID,0,VALID,18.6496,VALID,236,VALID,0.338086,
2000-04-03, 01:59:00,VALID,917.243,VALID,0,VALID,99.9596,VALID,-0.0169808,VALID,18.6427,VALID,167,VALID,0.539679,
2000-04-03, 02:00:00,VALID,917.236,VALID,0,VALID,99.9634,VALID,-0.0339617,VALID,18.6489,VALID,122,VALID,0.602385,
2000-04-03, 02:01:00,VALID,917.229,VALID,0,VALID,99.9735,VALID,-0.0339617,VALID,18.6551,VALID,105,VALID,0.135691,
2000-04-03, 02:02:00,VALID,917.223,VALID,0,VALID,99.9557,VALID,-0.0169808,VALID,18.6487,VALID,128,VALID,0.159951,
2000-04-03, 02:03:00,VALID,917.217,VALID,0,VALID,99.9748,VALID,-0.0339617,VALID,18.6623,VALID,119,VALID,0.0148026,
2000-04-03, 02:04:00,VALID,917.22,VALID,0,VALID,99.9672,VALID,0,VALID,18.6718,VALID,207,VALID,0,
2000-04-03, 02:05:00,VALID,917.22,VALID,0,VALID,99.9659,VALID,-0.0169808,VALID,18.6618,VALID,275,VALID,0,
2000-04-03, 02:06:00,VALID,917.217,VALID,0,VALID,99.9735,VALID,0,VALID,18.6651,VALID,180,VALID,0,
2000-04-03, 02:07:00,VALID,917.208,VALID,0,VALID,99.9659,VALID,0,VALID,18.6584,VALID,144,VALID,0,
2000-04-03, 02:08:00,VALID,917.214,VALID,0,VALID,99.9647,VALID,0,VALID,18.6519,VALID,146,VALID,0,
2000-04-03, 02:09:00,VALID,917.214,VALID,0,VALID,99.9608,VALID,-0.0169808,VALID,18.6551,VALID,145,VALID,0,
2000-04-03, 02:10:00,VALID,917.189,VALID,0,VALID,99.9634,VALID,-0.0509425,VALID,18.6586,VALID,90,VALID,0,
2000-04-03, 02:11:00,VALID,917.183,VALID,0,VALID,99.9557,VALID,-0.0169808,VALID,18.6392,VALID,86,VALID,0.353618,
2000-04-03, 02:12:00,VALID,917.152,VALID,0,VALID,99.9647,VALID,0,VALID,18.6558,VALID,70,VALID,0.000822368,
2000-04-03, 02:13:00,VALID,917.133,VALID,0,VALID,99.9659,VALID,-0.0169808,VALID,18.6551,VALID,137,VALID,0.0829327,
2000-04-03, 02:14:00,VALID,917.122,VALID,0,VALID,99.9494,VALID,0,VALID,18.6625,VALID,194,VALID,0.30293,
2000-04-03, 02:15:00,VALID,917.092,VALID,0,VALID,99.9532,VALID,-0.0169808,VALID,18.6422,VALID,102,VALID,0.632196,
2000-04-03, 02:16:00,VALID,917.086,VALID,0,VALID,99.971,VALID,0,VALID,18.642,VALID,102,VALID,0.09375,
2000-04-03, 02:17:00,VALID,917.081,VALID,0,VALID,99.9774,VALID,-0.0169808,VALID,18.6618,VALID,163,VALID,0.104852,
2000-04-03, 02:18:00,VALID,917.08,VALID,0,VALID,99.9519,VALID,-0.0169808,VALID,18.6524,VALID,290,VALID,0.733553,
2000-04-03, 02:19:00,VALID,917.068,VALID,0,VALID,99.957,VALID,-0.0169808,VALID,18.6127,VALID,128,VALID,0.27097,
2000-04-03, 02:20:00,VALID,917.062,VALID,0,VALID,99.9697,VALID,0,VALID,18.6325,VALID,83,VALID,0.241365,
2000-04-03, 02:21:00,VALID,917.072,VALID,0,VALID,99.9774,VALID,0,VALID,18.6358,VALID,89,VALID,0.127604,
2000-04-03, 02:22:00,VALID,917.06,VALID,0,VALID,99.9685,VALID,-0.0169808,VALID,18.6395,VALID,164,VALID,0.39707,
2000-04-03, 02:23:00,VALID,917.049,VALID,0,VALID,99.9873,VALID,-0.0169808,VALID,18.6455,VALID,208,VALID,0.138569,
2000-04-03, 02:24:00,VALID,917.042,VALID,0,VALID,99.985,VALID,-0.0339617,VALID,18.6655,VALID,187,VALID,0.146998,
2000-04-03, 02:25:00,VALID,917.039,VALID,0,VALID,99.9919,VALID,0,VALID,18.6782,VALID,142,VALID,0,
2000-04-03, 02:26:00,VALID,917.025,VALID,0,VALID,99.9977,VALID,0,VALID,18.6914,VALID,123,VALID,0,
2000-04-03, 02:27:00,VALID,917.026,VALID,0,VALID,99.9931,VALID,0,VALID,18.6974,VALID,135,VALID,0.00102796,
2000-04-03, 02:28:00,VALID,917.02,VALID,0,VALID,99.9695,VALID,0,VALID,18.6777,VALID,126,VALID,0.350535,
2000-04-03, 02:29:00,VALID,917.008,VALID,0,VALID,99.9758,VALID,0,VALID,18.6588,VALID,323,VALID,0.398838,
2000-04-03, 02:30:00,VALID,917.012,VALID,0,VALID,99.9809,VALID,0,VALID,18.6683,VALID,213,VALID,0.429102,
2000-04-03, 02:31:00,VALID,916.991,VALID,0,VALID,99.9837,VALID,-0.0339617,VALID,18.6688,VALID,56,VALID,1.18606,
2000-04-03, 02:32:00,VALID,916.969,VALID,0,VALID,99.988,VALID,-0.0169808,VALID,18.6722,VALID,334,VALID,0.529605,
2000-04-03, 02:33:00,VALID,916.976,VALID,0,VALID,99.9784,VALID,0,VALID,18.6496,VALID,271,VALID,0.555715,
2000-04-03, 02:34:00,VALID,916.958,VALID,0,VALID,99.9748,VALID,-0.0169808,VALID,18.6164,VALID,279,VALID,0.476768,
2000-04-03, 02:35:00,VALID,916.93,VALID,0,VALID,99.9858,VALID,-0.0339617,VALID,18.6136,VALID,206,VALID,0.28125,
2000-04-03, 02:36:00,VALID,916.914,VALID,0,VALID,100,VALID,0,VALID,18.6392,VALID,128,VALID,0.583882,
2000-04-03, 02:37:00,VALID,916.891,VALID,0,VALID,100,VALID,-0.0169808,VALID,18.642,VALID,116,VALID,0.70653,
2000-04-03, 02:38:00,VALID,916.889,VALID,0,VALID,99.999,VALID,0,VALID,18.6455,VALID,83,VALID,0.573047,
2000-04-03, 02:39:00,VALID,916.868,VALID,0,VALID,99.9883,VALID,-0.0339617,VALID,18.6102,VALID,40,VALID,0.865748,
2000-04-03, 02:40:00,VALID,916.856,VALID,0,VALID,99.9858,VALID,-0.0169808,VALID,18.591,VALID,246,VALID,0.469778,
2000-04-03, 02:41:00,VALID,916.844,VALID,0,VALID,99.9957,VALID,0,VALID,18.5942,VALID,125,VALID,0.599301,
2000-04-03, 02:42:00,VALID,916.847,VALID,0,VALID,100,VALID,-0.0169808,VALID,18.6171,VALID,72,VALID,0.598479,
2000-04-03, 02:43:00,VALID,916.838,VALID,0,VALID,100,VALID,0,VALID,18.6293,VALID,103,VALID,0.127056,
2000-04-03, 02:44:00,VALID,916.843,VALID,0,VALID,100,VALID,-0.0169808,VALID,18.6494,VALID,114,VALID,0.57278,
2000-04-03, 02:45:00,VALID,916.845,VALID,0,VALID,100,VALID,-0.0169808,VALID,18.6395,VALID,97,VALID,0.265825,
2000-04-03, 02:46:00,VALID,916.849,VALID,0,VALID,99.9954,VALID,-0.0169808,VALID,18.6298,VALID,83,VALID,0.251758,
2000-04-03, 02:47:00,VALID,916.841,VALID,0,VALID,100,VALID,0,VALID,18.6134,VALID,209,VALID,0.0215872,
2000-04-03, 02:48:00,VALID,916.832,VALID,0,VALID,100,VALID,0,VALID,18.6233,VALID,195,VALID,0,
2000-04-03, 02:49:00,VALID,916.813,VALID,0,VALID,100,VALID,-0.0169808,VALID,18.633,VALID,134,VALID,0,
2000-04-03, 02:50:00,VALID,916.782,VALID,0,VALID,100,VALID,-0.0169808,VALID,18.6206,VALID,254,VALID,0,
2000-04-03, 02:51:00,VALID,916.769,VALID,0,VALID,100,VALID,-0.0509425,VALID,18.6042,VALID,307,VALID,0,
2000-04-03, 02:52:00,VALID,916.744,VALID,0,VALID,100,VALID,-0.0509425,VALID,18.624,VALID,71,VALID,0,
2000-04-03, 02:53:00,VALID,916.709,VALID,0,VALID,100,VALID,-0.0509425,VALID,18.6402,VALID,93,VALID,0,
2000-04-03, 02:54:00,VALID,916.699,VALID,0,VALID,100,VALID,-0.0339617,VALID,18.6429,VALID,93,VALID,0.248437,
2000-04-03, 02:55:00,VALID,916.688,VALID,0,VALID,100,VALID,-0.0339617,VALID,18.6531,VALID,97,VALID,0.707442,
2000-04-03, 02:56:00,VALID,916.681,VALID,0,VALID,100,VALID,-0.0339617,VALID,18.6519,VALID,107,VALID,0.549753,
2000-04-03, 02:57:00,VALID,916.661,VALID,0,VALID,100,VALID,-0.0169808,VALID,18.672,VALID,105,VALID,0.930715,
2000-04-03, 02:58:00,VALID,916.65,VALID,0,VALID,100,VALID,-0.0169808,VALID,18.6655,VALID,101,VALID,1.20271,
2000-04-03, 02:59:00,VALID,916.646,VALID,0,VALID,100,VALID,-0.0849042,VALID,18.6653,VALID,98,VALID,1.05016,
2000-04-03, 03:00:00,VALID,916.638,VALID,0,VALID,100,VALID,0,VALID,18.6432,VALID,82,VALID,1.18072,
2000-04-03, 03:01:00,VALID,916.644,VALID,0,VALID,100,VALID,-0.0679233,VALID,18.6337,VALID,97,VALID,1.05409,
2000-04-03, 03:02:00,VALID,916.649,VALID,0,VALID,100,VALID,-0.0339617,VALID,18.6196,VALID,55,VALID,1.05742,
2000-04-03, 03:03:00,VALID,916.659,VALID,0,VALID,99.999,VALID,-0.0339617,VALID,18.6049,VALID,91,VALID,0.669202,
2000-04-03, 03:04:00,VALID,916.647,VALID,0,VALID,100,VALID,-0.0339617,VALID,18.6074,VALID,105,VALID,1.54852,
2000-04-03, 03:05:00,VALID,916.644,VALID,0,VALID,100,VALID,-0.0339617,VALID,18.6141,VALID,86,VALID,1.26727,
2000-04-03, 03:06:00,VALID,916.655,VALID,0,VALID,100,VALID,-0.0509425,VALID,18.5716,VALID,87,VALID,1.79091,
2000-04-03, 03:07:00,VALID,916.646,VALID,0,VALID,100,VALID,-0.0509425,VALID,18.5661,VALID,69,VALID,1.42948,
2000-04-03, 03:08:00,VALID,916.635,VALID,0,VALID,100,VALID,-0.0509425,VALID,18.5758,VALID,95,VALID,1.44264,
2000-04-03, 03:09:00,VALID,916.626,VALID,0,VALID,100,VALID,-0.0849042,VALID,18.5693,VALID,96,VALID,1.2472,
2000-04-03, 03:10:00,VALID,916.611,VALID,0,VALID,100,VALID,-0.0849042,VALID,18.5555,VALID,98,VALID,1.66836,
2000-04-03, 03:11:00,VALID,916.601,VALID,0,VALID,100,VALID,-0.0169808,VALID,18.5853,VALID,98,VALID,1.56764,
2000-04-03, 03:12:00,VALID,916.58,VALID,0,VALID,100,VALID,-0.0679233,VALID,18.5982,VALID,96,VALID,1.52426,
2000-04-03, 03:13:00,VALID,916.564,VALID,0,VALID,100,VALID,-0.0509425,VALID,18.5714,VALID,92,VALID,1.60074,
2000-04-03, 03:14:00,VALID,916.544,VALID,0,VALID,100,VALID,-0.0169808,VALID,18.5749,VALID,109,VALID,1.79338,
2000-04-03, 03:15:00,VALID,916.54,VALID,0,VALID,100,VALID,-0.0509425,VALID,18.5654,VALID,99,VALID,1.69058,
2000-04-03, 03:16:00,VALID,916.549,VALID,0,VALID,100,VALID,-0.0509425,VALID,18.559,VALID,89,VALID,1.2097,
2000-04-03, 03:17:00,VALID,916.557,VALID,0,VALID,100,VALID,-0.0339617,VALID,18.5391,VALID,110,VALID,1.06791,
2000-04-03, 03:18:00,VALID,916.564,VALID,0,VALID,100,VALID,-0.0509425,VALID,18.5463,VALID,25,VALID,1.05254,
2000-04-03, 03:19:00,VALID,916.56,VALID,0.2,VALID,100,VALID,-0.0849042,VALID,18.5011,VALID,47,VALID,1.05736,
2000-04-03, 03:20:00,VALID,916.544,VALID,0,VALID,100,VALID,-0.0509425,VALID,18.511,VALID,95,VALID,1.18195,
2000-04-03, 03:21:00,VALID,916.532,VALID,0,VALID,100,VALID,0.0509425,VALID,18.5057,VALID,82,VALID,0.707442,
2000-04-03, 03:22:00,VALID,916.537,VALID,0,VALID,100,VALID,0.0509425,VALID,18.5287,VALID,165,VALID,0.231497,
2000-04-03, 03:23:00,VALID,916.523,VALID,0,VALID,100,VALID,0.0679233,VALID,18.532,VALID,160,VALID,0.226563,
2000-04-03, 03:24:00,VALID,916.498,VALID,0,VALID,100,VALID,0.0849042,VALID,18.5285,VALID,85,VALID,0.979646,
2000-04-03, 03:25:00,VALID,916.487,VALID,0,VALID,100,VALID,0.101885,VALID,18.5416,VALID,76,VALID,0.770633,
2000-04-03, 03:26:00,VALID,916.445,VALID,0,VALID,100,VALID,0.0509425,VALID,18.5511,VALID,88,VALID,1.27031,
2000-04-03, 03:27:00,VALID,916.436,VALID,0,VALID,100,VALID,0.0679233,VALID,18.558,VALID,124,VALID,0.753084,
2000-04-03, 03:28:00,VALID,916.428,VALID,0,VALID,100,VALID,0.0849042,VALID,18.5446,VALID,175,VALID,0.664474,
2000-04-03, 03:29:00,VALID,916.42,VALID,0,VALID,100,VALID,0.101885,VALID,18.525,VALID,179,VALID,0.427426,
2000-04-03, 03:30:00,VALID,916.419,VALID,0,VALID,100,VALID,0.0849042,VALID,18.4987,VALID,248,VALID,0.616776,
2000-04-03, 03:31:00,VALID,916.42,VALID,0,VALID,100,VALID,0.101885,VALID,18.4962,VALID,250,VALID,0.0951891,
2000-04-03, 03:32:00,VALID,916.424,VALID,0,VALID,100,VALID,0.101885,VALID,18.4607,VALID,188,VALID,0.331209,
2000-04-03, 03:33:00,VALID,916.438,VALID,0,VALID,100,VALID,0.0679233,VALID,18.4411,VALID,157,VALID,0.327324,
2000-04-03, 03:34:00,VALID,916.442,VALID,0,VALID,100,VALID,0.0849042,VALID,18.4505,VALID,114,VALID,0.945508,
2000-04-03, 03:35:00,VALID,916.447,VALID,0,VALID,100,VALID,0.0509425,VALID,18.4768,VALID,130,VALID,0.684622,
2000-04-03, 03:36:00,VALID,916.451,VALID,0,VALID,100,VALID,0,VALID,18.4909,VALID,29,VALID,0.570929,